FENGYUN 1C DEB

Satellite information

Favourite Embed

Satellite Type and Status

DEBRISIN ORBIT

Key statistics

Satellite FENGYUN 1C DEB at a glance.

Uptime

9663

Days in orbit

Revolutions

≈ 14.3

Per day

Orbit

SSO

Sun Synchronous Orbit

Inclination

99.5

Latest

Satellite identification and parameters

Extended collection of information and parameters for FENGYUN 1C DEB.

Object identification

Identified? True

Debris? True

Object name: FENGYUN 1C DEB

International designator: 1999-025CRC

Object number (NORAD): 32110

Object ID (CCSDS): 32110

Country: PEOPLES REPUBLIC OF CHINA (PRC)

Current information (Y/N): Y

RCS size: SMALL

Orbital parameters

Period: 100.817 minutes

Inclination: 99.544 deg

SMA: 7175.477 km

Apoapsis: 821.798 km

Periapsis: 772.887 km

RAAN: 99.2896 deg

Eccentricy: 0.0034082

Argument of periapsis: 155.3274 deg

Mean anomaly: 6.2032 deg

Mean motion: 14.28323459 rev/day

Mean motion (dot): 0.00006051 rev/day2

B* drag term: 0.0024274 1/REarth

Two-line elements (TLE)

Creation date: Oct. 22, 2025, 7:06 a.m.

Reference frame: TEME

Reference center: EARTH

Epoch: Oct. 21, 2025, 10:12 p.m. UTC

TLE line 0: 0 FENGYUN 1C DEB

TLE line 1: 1 32110U 99025CRC 25294.92566191 .00006051 00000-0 24274-2 0 9996

TLE line 2: 2 32110 99.5440 99.2896 0034082 155.3274 6.2032 14.28323459636488

Live tracking on map

Real-time ground track for satellite FENGYUN 1C DEB.

In-orbit conjunctions

A list of the most updated potential collisions computed for object FENGYUN 1C DEB.

Target Orbit TCA Probability of collision Miss distance Type
HAIYANG 1 SSO 2025-10-15 11:53:34 0.0002972415 385.0 (m) PAYLOAD
THORAD AGENA D DEB SSO 2025-05-05 13:02:20 0.0005176488 70.0 (m) DEBRIS
EXPLORER 30 LEO 2024-12-24 05:37:47 0.0001171725 177.0 (m) PAYLOAD

Associated space launch

Chinese polar orbiting meteorological satellite

FENGYUN 1C DEB was lifted into orbit during the mission ‘Long March 4B | Feng Yun 1C’, on board a Long March 4B space rocket.

The launch took place on May 10, 1999, 1:33 a.m. from Launch Complex 7.

For more information about the launch, click the button.

Launch to space Long March 4B | Feng Yun 1C
Long March 4B | Feng Yun 1C

Agency: N/A

Status: Launch Successful

Launch date: May 10, 1999, 1:33 a.m. UTC

Rocket: Long March 4B

Launch pad: Launch Complex 7

Location: Taiyuan Satellite Launch Center, People's Republic of China

...

Latest news about this satellite

There are no fresh news available about this satellite. Check back as we update our databases every day.


Newsletter sign-up

Weekly statistics, charts and insights to help you stay on top of the space industry.